Home   Weather   Rotherham   Past weeks

Flag for United Kingdom Past Weather in Rotherham, England, United Kingdom — Yesterday and Last 2 Weeks

Now
58 °F

Cool.


Feels Like: 55 °F
Forecast: 52 / 65 °F
Wind: 14 mph from Southwest

Location: Nottingham Weather Centre

Current Time: Sep 28, 2016 at 11:25:17 AM

Latest Report: Sep 28, 2016 at 10:00 AM


Visibility: 13 mi

Pressure: 30.18 "Hg

Humidity: 81%

Dew Point: 52 °F

Location of RotherhamLocation

Past Weather in Rotherham — Graph

°F

Rotherham Temperature Yesterday

Maximum temperature yesterday: 67 °F (at 6:00 PM)
Minimum temperature yesterday: 53 °F (at 2:00 AM)
Average temperature yesterday: 59 °F

High & Low Weather Summary for the Past Weeks

 TemperatureHumidityPressure
High80 °F (Sep 13, 1:00 PM)100% (Sep 15, 5:00 AM)30.24 "Hg (Sep 15, 5:00 AM)
Low47 °F (Sep 23, 7:00 AM)50% (Sep 22, 4:00 PM)29.70 "Hg (Sep 25, 4:00 AM)
Average59 °F82%30.04 "Hg
* Reported Sep 13 10:00 AM — Sep 28 10:00 AM, Rotherham, Weather by CustomWeather, © 2016

Note: Actual official high and low records may vary slightly from our data, if they occured in-between our weather recording intervals... More about our weather records

Advertising

Rotherham Weather History for the Previous 24 Hours

Scroll right to see more
 ConditionsComfort  
Time TempWeatherWind HumidityBarometerVisibility
10:00 AM
Wed, Sep 28
58 °FCool.14 mph81%30.18 "Hg12 mi
9:00 AM56 °FCool.9 mph85%30.18 "Hg11 mi
8:00 AM53 °FCool.6 mph90%30.18 "Hg10 mi
7:00 AM53 °FCool.8 mph89%30.18 "Hg10 mi
6:00 AM52 °FCool.8 mph89%30.18 "Hg11 mi
5:00 AM52 °FCool.9 mph88%30.18 "Hg12 mi
4:00 AM53 °FCool.8 mph85%30.18 "Hg12 mi
3:00 AM53 °FCool.8 mph85%30.18 "Hg11 mi
2:00 AM54 °FCool.9 mph84%30.17 "Hg12 mi
1:00 AM54 °FCool.8 mph86%30.17 "Hg14 mi
12:00 AM56 °FCool.8 mph86%30.17 "Hg16 mi
11:00 PM
Tue, Sep 27
57 °FCool.8 mph83%30.17 "Hg17 mi
10:00 PM58 °FCool.9 mph80%30.17 "Hg19 mi
9:00 PM60 °FCool.9 mph80%30.17 "Hg31 mi
8:00 PM62 °FCool.7 mph79%30.17 "Hg31 mi
7:00 PM63 °FMild.9 mph76%30.15 "Hg11 mi
6:00 PM67 °FMild.14 mph70%30.12 "Hg31 mi
5:00 PM66 °FMild.9 mph79%30.11 "Hg31 mi
4:00 PM65 °FMild.9 mph83%30.10 "Hg31 mi
3:00 PM65 °FMild.10 mph85%30.10 "Hg31 mi
2:00 PM63 °FMild.10 mph88%30.10 "Hg31 mi
1:00 PM62 °FCool.14 mph90%30.09 "Hg31 mi
12:00 PM61 °FCool.13 mph90%30.09 "Hg31 mi
11:00 AM60 °FCool.10 mph90%30.09 "Hg31 mi
Weather by CustomWeather, © 2016

See weather overviewHow to use our weather pages